Date String (YYYY-MM-DD hh:mm:ss) UTC,Instrument flags,absolute air pressure of the measurement (hPa),sample flow rate (lpm),inlet stack bypass flow (lpm),air temperature of the measurement (°C),ambient temperature measured by the external sensor (°C),aerosol sample conditioner tube jacket temperature (°C),OPC LED temperature (°C),internal box temperature (°C),relative humidity of the measurement (%),span deviation,mass concentration of particles derived from Lorenz-Mie calculation of OPC scattering (μg/m³),mass concentration of particles derived from Lorenz-Mie calculation of OPC scattering (μg/m³),mass concentration of particles derived from Lorenz-Mie calculation of OPC scattering (μg/m³)
DateTimeUTC,F1_M11,P_M11,Q1_M11,Q2_M11,T1_M11,T2_M11,T3_M11,T4_M11,T5_M11,U1_M11,ZSPAN_M11,X0_M11,X2_M11,X1_M11
2024-02-27 17:00:00,SystemResetWarning,0816.2,5.00,000.00,018.4,018.5,000.0,027.1,020.6,17.2,0000.0,0009.32,0003.80,0003.11
2024-02-27 17:01:00,SystemResetWarning,0816.2,4.99,000.00,018.5,018.5,000.0,027.0,020.5,17.0,0000.0,0009.54,0003.79,0003.12
2024-02-27 17:02:00,SystemResetWarning,0816.4,4.99,000.00,018.5,018.3,000.0,026.9,020.3,17.1,0000.0,0009.88,0003.80,0003.12
2024-02-27 17:03:00,SystemResetWarning,0816.5,5.01,000.00,018.4,018.1,000.0,026.9,020.2,17.1,0000.0,0010.04,0003.79,0003.11
2024-02-27 17:04:00,SystemResetWarning,0816.6,5.01,000.00,018.4,018.0,000.0,026.9,020.1,17.1,0000.0,0010.15,0003.75,0003.11
2024-02-27 17:05:00,SystemResetWarning,0816.8,5.00,000.00,018.4,017.8,000.0,026.8,020.0,17.1,0000.0,0009.46,0003.71,0003.08
2024-02-27 17:06:00,SystemResetWarning,0816.9,4.99,000.00,018.3,017.7,000.0,026.8,020.0,17.1,0000.0,0009.39,0003.65,0003.02
2024-02-27 17:07:00,SystemResetWarning,0816.9,4.99,000.00,018.3,017.7,000.0,026.9,020.0,17.1,0000.0,0010.54,0003.62,0002.96
2024-02-27 17:08:00,SystemResetWarning,0816.9,5.00,000.00,018.2,017.6,000.0,026.9,020.0,17.1,0000.0,0010.50,0003.58,0002.89
2024-02-27 17:09:00,SystemResetWarning,0816.9,5.01,000.00,018.2,017.5,000.0,026.9,020.0,17.3,0000.0,0011.21,0003.58,0002.86
2024-02-27 17:10:00,SystemResetWarning,0816.9,5.00,000.00,018.2,017.4,000.0,026.9,020.0,17.3,0000.0,0010.55,0003.54,0002.82
2024-02-27 17:11:00,SystemResetWarning,0816.9,5.00,000.00,018.2,017.4,000.0,026.9,020.0,17.4,0000.0,0010.44,0003.52,0002.77
2024-02-27 17:12:00,SystemResetWarning,0817.0,5.00,000.00,018.2,017.4,000.0,026.9,020.0,17.6,0000.0,0009.98,0003.50,0002.75
2024-02-27 17:13:00,SystemResetWarning,0817.1,4.99,000.00,018.2,017.4,000.0,026.9,020.0,17.6,0000.0,0009.55,0003.45,0002.73
2024-02-27 17:14:00,SystemResetWarning,0817.0,5.00,000.00,018.2,017.3,000.0,027.0,020.0,17.5,0000.0,0009.40,0003.45,0002.72
2024-02-27 17:15:00,SystemResetWarning,0817.0,5.00,000.00,018.2,017.3,000.0,027.0,020.0,17.3,0000.0,0009.20,0003.45,0002.72
2024-02-27 17:16:00,SystemResetWarning,0817.1,5.01,000.00,018.1,017.2,000.0,027.0,020.0,17.1,0000.0,0009.18,0003.45,0002.74
2024-02-27 17:17:00,SystemResetWarning,0817.0,5.01,000.00,018.1,017.2,000.0,027.0,020.0,17.1,0000.0,0009.04,0003.46,0002.76
2024-02-27 17:18:00,SystemResetWarning,0816.9,5.00,000.00,018.1,017.2,000.0,027.0,020.0,16.9,0000.0,0007.63,0003.49,0002.79
2024-02-27 17:19:00,SystemResetWarning,0816.9,5.00,000.00,018.1,017.2,000.0,027.0,020.0,17.0,0000.0,0007.57,0003.48,0002.80
2024-02-27 17:20:00,SystemResetWarning,0817.0,5.01,000.00,018.2,017.6,000.0,027.0,020.2,17.0,0000.0,0006.72,0003.47,0002.79
2024-02-27 17:21:00,SystemResetWarning,0817.1,5.00,000.00,018.4,018.4,000.0,027.1,020.6,16.8,0000.0,0005.92,0003.43,0002.78
2024-02-27 17:22:00,SystemResetWarning,0817.1,4.99,000.00,018.6,019.0,000.0,027.1,020.9,16.5,0000.0,0006.04,0003.44,0002.75
2024-02-27 17:23:00,SystemResetWarning,0817.1,4.99,000.00,018.7,018.9,000.0,027.0,020.8,16.3,0000.0,0006.75,0003.44,0002.72
2024-02-27 17:24:00,SystemResetWarning,0817.1,4.99,000.00,018.6,018.6,000.0,027.0,020.6,16.2,0000.0,0007.75,0003.45,0002.70
2024-02-27 17:25:00,SystemResetWarning,0817.1,5.01,000.00,018.6,018.4,000.0,027.0,020.4,16.2,0000.0,0007.83,0003.44,0002.67
2024-02-27 17:26:00,SystemResetWarning,0817.1,5.00,000.00,018.5,018.2,000.0,027.0,020.3,16.1,0000.0,0007.74,0003.39,0002.62
2024-02-27 17:27:00,SystemResetWarning,0817.1,5.00,000.00,018.5,018.1,000.0,026.9,020.2,16.2,0000.0,0007.82,0003.40,0002.57
2024-02-27 17:28:00,SystemResetWarning,0817.1,5.00,000.00,018.4,017.9,000.0,026.9,020.1,16.2,0000.0,0007.84,0003.38,0002.54
2024-02-27 17:29:00,SystemResetWarning,0817.1,5.00,000.00,018.4,017.8,000.0,026.9,020.0,16.3,0000.0,0007.80,0003.35,0002.49
2024-02-27 17:30:00,SystemResetWarning,0817.1,5.00,000.00,018.3,017.7,000.0,026.9,020.0,16.4,0000.0,0007.75,0003.30,0002.42
2024-02-27 17:31:00,SystemResetWarning,0817.3,5.00,000.00,018.3,017.6,000.0,027.0,020.0,16.3,0000.0,0007.77,0003.28,0002.39
2024-02-27 17:32:00,SystemResetWarning,0817.3,5.01,000.00,018.3,017.5,000.0,027.0,020.0,16.2,0000.0,0007.91,0003.30,0002.37
2024-02-27 17:33:00,SystemResetWarning,0817.4,5.00,000.00,018.3,017.5,000.0,027.0,020.0,16.0,0000.0,0007.91,0003.29,0002.35
2024-02-27 17:34:00,SystemResetWarning,0817.3,5.01,000.00,018.2,017.4,000.0,027.0,020.0,15.9,0000.0,0007.81,0003.27,0002.33
2024-02-27 17:35:00,SystemResetWarning,0817.4,5.00,000.00,018.2,017.4,000.0,027.0,020.0,15.8,0000.0,0006.90,0003.26,0002.30
2024-02-27 17:36:00,SystemResetWarning,0817.4,5.00,000.00,018.2,017.3,000.0,027.0,020.0,15.8,0000.0,0006.79,0003.22,0002.26
2024-02-27 17:37:00,SystemResetWarning,0817.4,5.00,000.00,018.2,017.3,000.0,027.0,020.0,15.9,0000.0,0007.08,0003.20,0002.24
2024-02-27 17:38:00,SystemResetWarning,0817.5,5.00,000.00,018.2,017.2,000.0,027.0,020.0,16.0,0000.0,0007.31,0003.17,0002.23
2024-02-27 17:39:00,SystemResetWarning,0817.5,4.99,000.00,018.2,017.2,000.0,027.0,020.0,16.1,0000.0,0007.63,0003.19,0002.22
2024-02-27 17:40:00,SystemResetWarning,0817.5,4.99,000.00,018.2,017.2,000.0,027.0,020.0,16.3,0000.0,0007.56,0003.17,0002.20
2024-02-27 17:41:00,SystemResetWarning,0817.6,5.00,000.00,018.2,017.2,000.0,027.0,020.0,16.2,0000.0,0007.71,0003.20,0002.22
2024-02-27 17:42:00,SystemResetWarning,0817.6,4.99,000.00,018.2,017.3,000.0,027.0,020.1,15.9,0000.0,0008.02,0003.19,0002.21
2024-02-27 17:43:00,SystemResetWarning,0817.5,5.00,000.00,018.3,018.2,000.0,027.1,020.5,15.6,0000.0,0008.50,0003.18,0002.18
2024-02-27 17:44:00,SystemResetWarning,0817.6,5.00,000.00,018.6,019.0,000.0,027.1,020.9,15.4,0000.0,0008.39,0003.13,0002.11
2024-02-27 17:45:00,SystemResetWarning,0817.6,4.99,000.00,018.7,019.0,000.0,027.1,020.9,15.4,0000.0,0008.28,0003.10,0002.07
2024-02-27 17:46:00,SystemResetWarning,0817.5,4.99,000.00,018.7,018.8,000.0,027.0,020.7,15.5,0000.0,0008.24,0003.07,0002.03
2024-02-27 17:47:00,SystemResetWarning,0817.4,5.01,000.00,018.6,018.5,000.0,027.0,020.4,15.7,0000.0,0008.32,0003.07,0001.99
2024-02-27 17:48:00,SystemResetWarning,0817.5,5.01,000.00,018.6,018.3,000.0,027.0,020.3,15.8,0000.0,0008.03,0003.04,0001.97
2024-02-27 17:49:00,SystemResetWarning,0817.6,5.00,000.00,018.5,018.1,000.0,027.0,020.1,15.8,0000.0,0007.93,0003.01,0001.93
2024-02-27 17:50:00,SystemResetWarning,0817.7,5.00,000.00,018.4,017.9,000.0,026.9,020.0,15.9,0000.0,0007.64,0002.97,0001.89
2024-02-27 17:51:00,SystemResetWarning,0817.7,5.00,000.00,018.4,017.8,000.0,026.9,020.0,16.0,0000.0,0007.75,0002.93,0001.85
2024-02-27 17:52:00,SystemResetWarning,0817.7,5.00,000.00,018.3,017.7,000.0,027.0,020.0,16.1,0000.0,0007.65,0002.84,0001.82
2024-02-27 17:53:00,SystemResetWarning,0817.7,5.00,000.00,018.3,017.6,000.0,027.0,020.0,16.2,0000.0,0007.35,0002.79,0001.78
2024-02-27 17:54:00,SystemResetWarning,0817.8,5.01,000.00,018.3,017.5,000.0,027.0,020.0,16.2,0000.0,0007.72,0002.75,0001.76
2024-02-27 17:55:00,SystemResetWarning,0817.8,5.01,000.00,018.3,017.5,000.0,027.0,020.0,16.3,0000.0,0007.82,0002.72,0001.75
2024-02-27 17:56:00,SystemResetWarning,0817.7,4.99,000.00,018.3,017.4,000.0,027.0,020.0,16.4,0000.0,0008.26,0002.77,0001.76
2024-02-27 17:57:00,SystemResetWarning,0817.7,5.00,000.00,018.2,017.4,000.0,027.0,020.0,16.4,0000.0,0009.14,0002.72,0001.78
2024-02-27 17:58:00,SystemResetWarning,0817.8,5.00,000.00,018.2,017.4,000.0,027.0,020.0,16.1,0000.0,0009.46,0002.68,0001.80
2024-02-27 17:59:00,SystemResetWarning,0817.7,5.00,000.00,018.2,017.4,000.0,027.0,020.0,15.9,0000.0,0009.43,0002.66,0001.82
